Location: Sibbertoft
(52.4361°N, 1.0300°W)
Time: 12:23:59
(UTC+01:00)

OTV 5 (USA 277) - Visible Passes

Search period start: 19 August 2018 00:00
Search period end: 29 August 2018 00:00
Orbit: 316 x 318 km, 54.5° (Epoch: 18 August)

Date Brightness Start Highest point End Pass type
(mag) Time Alt. Az. Time Alt. Az. Time Alt. Az.
19 Aug ? 21:49:09 10° SW 21:51:41 36° SSE 21:52:42 25° ESE visible
19 Aug ? 23:23:13 10° W 23:23:38 13° W 23:23:38 13° W visible
20 Aug ? 22:03:29 10° WSW 22:06:10 68° SSE 22:07:22 29° E visible
20 Aug ? 23:37:54 10° W 23:38:16 13° W 23:38:16 13° W visible
21 Aug ? 22:18:02 10° WSW 22:20:45 75° NNW 22:21:41 37° ENE visible
22 Aug ? 20:58:26 10° SW 21:01:04 49° SSE 21:03:43 10° ENE visible
22 Aug ? 22:32:42 10° W 22:35:24 56° N 22:35:46 49° NNE visible
23 Aug ? 21:12:53 10° WSW 21:15:36 88° SSE 21:18:20 10° ENE visible
23 Aug ? 22:47:23 10° WNW 22:49:45 47° NNW 22:49:45 47° NNW visible
24 Aug ? 21:27:31 10° W 21:30:13 63° NNW 21:32:47 11° ENE visible
24 Aug ? 23:02:02 10° WNW 23:03:39 30° WNW 23:03:39 30° WNW visible
25 Aug ? 21:42:12 10° W 21:44:53 52° N 21:46:38 18° ENE visible
25 Aug ? 23:16:38 10° WNW 23:17:31 18° WNW 23:17:31 18° WNW visible
26 Aug ? 21:56:52 10° WNW 21:59:33 52° N 22:00:29 33° ENE visible
26 Aug ? 23:31:14 10° WNW 23:31:21 11° WNW 23:31:21 11° WNW visible
27 Aug ? 20:37:00 10° W 20:39:41 56° N 20:42:23 10° ENE visible
27 Aug ? 22:11:29 10° WNW 22:14:12 66° NNE 22:14:18 65° NNE visible
28 Aug ? 20:51:41 10° WNW 20:54:22 51° N 20:57:03 10° E visible
28 Aug ? 22:26:05 10° WNW 22:28:07 46° WNW 22:28:07 46° WNW visible
